• In Czech Republic
  • List of Countries
  • For 7 days
  • Water Temperature
  • Satellite Maps
  • Weather Map
  • Weather Widgets
  • user-avatar
    Login

    Hourly Weather Saint-Ghislain

    Today, 24 February, Saturday

    Time Temperature Precipitation Wind Pressure Humidity
    00:00 -4°C° 0 mm 4 mps 762 mmHg 47%
    01:00 -5°C° 0 mm 5 mps 762 mmHg 46%
    02:00 -5°C° 0 mm 5 mps 762 mmHg 44%
    03:00 -6°C° 0 mm 5 mps 762 mmHg 43%
    04:00 -6°C° 0 mm 5 mps 762 mmHg 42%
    05:00 -6°C° 0 mm 5 mps 762 mmHg 40%
    06:00 -6°C° 0 mm 5 mps 762 mmHg 39%
    07:00 -5°C° 0 mm 6 mps 762 mmHg 35%
    08:00 -3°C° 0 mm 7 mps 762 mmHg 31%
    09:00 -2°C° 0 mm 7 mps 762 mmHg 28%
    10:00 -1°C° 0 mm 7 mps 762 mmHg 27%
    11:00 +2°C° 0 mm 7 mps 762 mmHg 27%
    12:00 +3°C° 0 mm 7 mps 763 mmHg 27%
    13:00 +3°C° 0 mm 7 mps 762 mmHg 30%
    14:00 +4°C° 0 mm 7 mps 762 mmHg 33%
    15:00 +4°C° 0 mm 7 mps 762 mmHg 36%
    16:00 +2°C° 0 mm 7 mps 763 mmHg 42%
    17:00 0°C° 0 mm 7 mps 763 mmHg 47%
    18:00 -2°C° 0 mm 6 mps 763 mmHg 53%
    19:00 -2°C° 0 mm 6 mps 764 mmHg 52%
    20:00 -3°C° 0 mm 6 mps 764 mmHg 52%
    21:00 -4°C° 0 mm 6 mps 764 mmHg 52%
    22:00 -4°C° 0 mm 6 mps 765 mmHg 51%
    23:00 -5°C° 0 mm 5 mps 765 mmHg 50%

    Tomorrow, 25 February, Sunday

    Time Temperature Precipitation Wind Pressure Humidity
    00:00 -5°C° 0 mm 5 mps 765 mmHg 49%
    01:00 -5°C° 0 mm 5 mps 765 mmHg 48%
    02:00 -6°C° 0 mm 5 mps 765 mmHg 48%
    03:00 -6°C° 0 mm 6 mps 765 mmHg 47%
    04:00 -6°C° 0 mm 6 mps 766 mmHg 46%
    05:00 -6°C° 0 mm 6 mps 766 mmHg 46%
    06:00 -6°C° 0 mm 6 mps 766 mmHg 45%
    07:00 -6°C° 0 mm 6 mps 767 mmHg 41%
    08:00 -6°C° 0 mm 7 mps 767 mmHg 37%
    09:00 -4°C° 0 mm 7 mps 767 mmHg 33%
    10:00 -3°C° 0 mm 7 mps 767 mmHg 30%
    11:00 -3°C° 0 mm 7 mps 767 mmHg 26%
    12:00 -2°C° 0 mm 7 mps 767 mmHg 23%
    13:00 -1°C° 0 mm 7 mps 767 mmHg 23%
    14:00 -1°C° 0 mm 7 mps 767 mmHg 23%
    15:00 -1°C° 0 mm 7 mps 767 mmHg 24%
    16:00 -3°C° 0 mm 7 mps 767 mmHg 28%
    17:00 -4°C° 0 mm 6 mps 767 mmHg 31%
    18:00 -5°C° 0 mm 5 mps 768 mmHg 35%
    19:00 -5°C° 0 mm 6 mps 768 mmHg 38%
    20:00 -6°C° 0 mm 6 mps 768 mmHg 41%
    21:00 -6°C° 0 mm 6 mps 769 mmHg 43%
    22:00 -6°C° 0 mm 6 mps 769 mmHg 46%
    23:00 -6°C° 0 mm 5 mps 769 mmHg 49%

    Day after tomorrow, 26 February, Monday

    Time Temperature Precipitation Wind Pressure Humidity
    00:00 -6°C° 0 mm 5 mps 769 mmHg 52%
    01:00 -6°C° 0 mm 5 mps 769 mmHg 55%
    02:00 -7°C° 0 mm 5 mps 769 mmHg 58%
    03:00 -7°C° 0 mm 5 mps 769 mmHg 61%
    04:00 -7°C° 0 mm 5 mps 769 mmHg 60%
    05:00 -8°C° 0 mm 6 mps 769 mmHg 58%
    06:00 -8°C° 0 mm 6 mps 769 mmHg 57%
    07:00 -7°C° 0 mm 7 mps 769 mmHg 54%
    08:00 -7°C° 0 mm 7 mps 769 mmHg 50%
    09:00 -6°C° 0 mm 8 mps 769 mmHg 47%
    10:00 -6°C° 0 mm 8 mps 769 mmHg 43%
    11:00 -5°C° 0 mm 8 mps 768 mmHg 39%
    12:00 -4°C° 0 mm 8 mps 768 mmHg 36%
    13:00 -4°C° 0 mm 8 mps 767 mmHg 35%
    14:00 -4°C° 0 mm 8 mps 767 mmHg 35%
    15:00 -4°C° 0 mm 8 mps 767 mmHg 35%
    16:00 -4°C° 0 mm 7 mps 766 mmHg 38%
    17:00 -5°C° 0 mm 6 mps 766 mmHg 42%
    18:00 -6°C° 0 mm 5 mps 766 mmHg 46%
    19:00 -6°C° 0 mm 5 mps 766 mmHg 48%
    20:00 -6°C° 0 mm 5 mps 766 mmHg 51%
    21:00 -6°C° 0 mm 5 mps 766 mmHg 54%
    22:00 -7°C° 0 mm 5 mps 766 mmHg 56%
    23:00 -7°C° 0 mm 5 mps 766 mmHg 57%

    27 February, Tuesday

    Time Temperature Precipitation Wind Pressure Humidity
    00:00 -7°C° 0 mm 4 mps 765 mmHg 59%
    01:00 -7°C° 0 mm 4 mps 765 mmHg 59%
    02:00 -7°C° 0 mm 4 mps 765 mmHg 59%
    03:00 -8°C° 0 mm 4 mps 764 mmHg 59%
    04:00 -8°C° 0 mm 4 mps 764 mmHg 58%
    05:00 -8°C° 0 mm 4 mps 764 mmHg 58%
    06:00 -8°C° 0 mm 5 mps 764 mmHg 57%
    07:00 -7°C° 0 mm 5 mps 764 mmHg 51%
    08:00 -8°C° 0 mm 6 mps 764 mmHg 45%
    09:00 -7°C° 0 mm 7 mps 764 mmHg 39%
    10:00 -6°C° 0 mm 7 mps 764 mmHg 35%
    11:00 -4°C° 0 mm 7 mps 763 mmHg 32%
    12:00 -3°C° 0 mm 7 mps 763 mmHg 29%
    13:00 -3°C° 0 mm 7 mps 762 mmHg 30%
    14:00 -3°C° 0 mm 6 mps 762 mmHg 32%
    15:00 -3°C° 0 mm 6 mps 761 mmHg 33%
    16:00 -4°C° 0 mm 5 mps 761 mmHg 36%
    17:00 -4°C° 0 mm 4 mps 761 mmHg 39%
    18:00 -5°C° 0 mm 3 mps 761 mmHg 43%
    19:00 -6°C° 0 mm 3 mps 761 mmHg 43%
    20:00 -6°C° 0 mm 3 mps 761 mmHg 43%
    21:00 -6°C° 0 mm 3 mps 761 mmHg 43%
    22:00 -6°C° 0 mm 3 mps 761 mmHg 43%
    23:00 -7°C° 0 mm 3 mps 761 mmHg 43%

    28 February, Wednesday

    Time Temperature Precipitation Wind Pressure Humidity
    00:00 -6°C° 0 mm 2 mps 761 mmHg 43%
    01:00 -6°C° 0 mm 2 mps 761 mmHg 43%
    02:00 -6°C° 0 mm 2 mps 761 mmHg 42%
    03:00 -7°C° 0 mm 2 mps 760 mmHg 42%
    04:00 -7°C° 0 mm 2 mps 760 mmHg 41%
    05:00 -7°C° 0 mm 2 mps 760 mmHg 40%
    06:00 -7°C° 0 mm 2 mps 760 mmHg 40%
    07:00 -7°C° 0 mm 3 mps 760 mmHg 35%
    08:00 -8°C° 0 mm 4 mps 760 mmHg 31%
    09:00 -7°C° 0 mm 4 mps 760 mmHg 27%
    10:00 -6°C° 0 mm 5 mps 760 mmHg 25%
    11:00 -5°C° 0 mm 5 mps 760 mmHg 22%
    12:00 -4°C° 0 mm 5 mps 759 mmHg 20%
    13:00 -4°C° 0 mm 6 mps 759 mmHg 19%
    14:00 -4°C° 0 mm 6 mps 758 mmHg 19%
    15:00 -4°C° 0 mm 6 mps 758 mmHg 19%
    16:00 -5°C° 0 mm 6 mps 758 mmHg 21%
    17:00 -6°C° 0 mm 5 mps 758 mmHg 24%
    18:00 -7°C° 0 mm 5 mps 758 mmHg 27%
    19:00 -7°C° 0 mm 5 mps 757 mmHg 28%
    20:00 -8°C° 0 mm 6 mps 757 mmHg 29%
    21:00 -9°C° 0 mm 6 mps 757 mmHg 31%
    22:00 -9°C° 0 mm 6 mps 756 mmHg 32%
    23:00 -9°C° 0 mm 6 mps 756 mmHg 33%

    1 March, Thursday

    Time Temperature Precipitation Wind Pressure Humidity
    00:00 -9°C° 0 mm 6 mps 756 mmHg 34%
    01:00 -10°C° 0 mm 6 mps 755 mmHg 36%
    02:00 -11°C° 0 mm 7 mps 754 mmHg 37%
    03:00 -11°C° 0 mm 7 mps 753 mmHg 38%
    04:00 -11°C° 0 mm 7 mps 753 mmHg 40%
    05:00 -11°C° 0 mm 7 mps 752 mmHg 41%
    06:00 -11°C° 0 mm 7 mps 751 mmHg 42%
    07:00 -11°C° 0 mm 7 mps 751 mmHg 42%
    08:00 -9°C° 0 mm 7 mps 750 mmHg 42%
    09:00 -8°C° 0 mm 7 mps 749 mmHg 42%
    10:00 -7°C° 0 mm 7 mps 749 mmHg 45%
    11:00 -7°C° 0 mm 7 mps 748 mmHg 48%
    12:00 -6°C° 0 mm 7 mps 747 mmHg 51%
    13:00 -6°C° 0.1 mm 7 mps 746 mmHg 57%
    14:00 -6°C° 0.1 mm 7 mps 745 mmHg 63%
    15:00 -6°C° 0.1 mm 7 mps 745 mmHg 69%
    16:00 -6°C° 0.7 mm 7 mps 744 mmHg 76%
    17:00 -6°C° 0.7 mm 7 mps 743 mmHg 83%
    18:00 -6°C° 0.7 mm 7 mps 742 mmHg 90%
    19:00 -4°C° 1.8 mm 7 mps 741 mmHg 92%
    20:00 -4°C° 1.8 mm 7 mps 740 mmHg 94%
    21:00 -3°C° 1.8 mm 7 mps 739 mmHg 95%
    22:00 -2°C° 0.9 mm 7 mps 739 mmHg 96%
    23:00 -2°C° 0.9 mm 7 mps 738 mmHg 96%
    Show more